Time,TemperatureF,DewpointF,PressureIn,WindDirection,WindDirectionDegrees,WindSpeedMPH,WindSpeedGustMPH,Humidity,HourlyPrecipIn,Conditions,Clouds,dailyrainin,SoftwareType,DateUTC
2011-04-17 00:04:00,50.2,24.0,29.86,ESE,112,0.0,2.5,36,0.00,,,0.00,open2300-1.11,2011-04-17 06:04:00,
2011-04-17 00:14:00,50.2,24.7,29.86,NE,45,6.3,6.3,37,0.00,,,0.00,open2300-1.11,2011-04-17 06:14:00,
2011-04-17 00:24:00,50.2,24.0,29.86,East,90,0.0,6.3,36,0.00,,,0.00,open2300-1.11,2011-04-17 06:24:00,
2011-04-17 00:34:00,50.2,24.7,29.86,SE,135,2.0,2.0,37,0.00,,,0.00,open2300-1.11,2011-04-17 06:34:00,
2011-04-17 00:44:00,50.0,24.5,29.85,East,90,0.0,4.5,37,0.00,,,0.00,open2300-1.11,2011-04-17 06:44:00,
2011-04-17 00:54:00,49.6,24.2,29.85,ESE,112,0.0,0.0,37,0.00,,,0.00,open2300-1.11,2011-04-17 06:54:00,
2011-04-17 01:04:00,49.6,24.2,29.85,East,90,0.0,3.4,37,0.00,,,0.00,open2300-1.11,2011-04-17 07:04:00,
2011-04-17 01:14:00,49.3,23.9,29.85,SE,135,0.0,0.7,37,0.00,,,0.00,open2300-1.11,2011-04-17 07:14:00,
2011-04-17 01:24:00,49.3,23.9,29.85,ENE,67,1.8,4.7,37,0.00,,,0.00,open2300-1.11,2011-04-17 07:24:00,
2011-04-17 01:35:00,49.1,23.8,29.85,East,90,5.8,5.8,37,0.00,,,0.00,open2300-1.11,2011-04-17 07:35:00,
2011-04-17 01:44:00,48.9,24.3,29.85,East,90,1.6,5.8,38,0.00,,,0.00,open2300-1.11,2011-04-17 07:44:00,
2011-04-17 01:54:00,48.9,24.3,29.85,East,90,0.0,4.2,38,0.00,,,0.00,open2300-1.11,2011-04-17 07:54:00,
2011-04-17 02:04:00,48.9,24.3,29.85,ESE,112,0.0,0.0,38,0.00,,,0.00,open2300-1.11,2011-04-17 08:04:00,
2011-04-17 02:14:00,48.7,24.1,29.84,ENE,67,6.7,6.7,38,0.00,,,0.00,open2300-1.11,2011-04-17 08:14:00,
2011-04-17 02:24:00,48.7,24.1,29.84,East,90,0.0,6.7,38,0.00,,,0.00,open2300-1.11,2011-04-17 08:24:00,
2011-04-17 02:34:00,48.7,24.1,29.84,East,90,0.0,1.3,38,0.00,,,0.00,open2300-1.11,2011-04-17 08:34:00,
2011-04-17 02:44:00,48.7,24.8,29.84,ESE,112,2.0,2.9,39,0.00,,,0.00,open2300-1.11,2011-04-17 08:44:00,
2011-04-17 02:54:00,48.7,24.8,29.83,East,90,0.0,5.6,39,0.00,,,0.00,open2300-1.11,2011-04-17 08:54:00,
2011-04-17 03:04:00,48.7,24.8,29.83,ENE,67,4.5,4.5,39,0.00,,,0.00,open2300-1.11,2011-04-17 09:04:00,
2011-04-17 03:14:00,48.4,24.5,29.83,ENE,67,1.3,5.8,39,0.00,,,0.00,open2300-1.11,2011-04-17 09:14:00,
2011-04-17 03:24:00,48.4,24.5,29.83,East,90,1.6,1.6,39,0.00,,,0.00,open2300-1.11,2011-04-17 09:24:00,
2011-04-17 03:35:00,48.2,24.3,29.83,ENE,67,4.9,7.2,39,0.00,,,0.00,open2300-1.11,2011-04-17 09:35:00,
2011-04-17 03:44:00,48.0,24.1,29.83,East,90,0.0,4.9,39,0.00,,,0.00,open2300-1.11,2011-04-17 09:44:00,
2011-04-17 03:54:00,47.8,24.0,29.83,ESE,112,0.0,0.0,39,0.00,,,0.00,open2300-1.11,2011-04-17 09:54:00,
2011-04-17 04:04:00,47.3,24.2,29.83,ENE,67,5.1,5.6,40,0.00,,,0.00,open2300-1.11,2011-04-17 10:04:00,
2011-04-17 04:14:00,47.1,24.5,29.83,East,90,0.0,5.8,41,0.00,,,0.00,open2300-1.11,2011-04-17 10:14:00,
2011-04-17 04:24:00,46.9,24.4,29.83,SE,135,0.0,0.9,41,0.00,,,0.00,open2300-1.11,2011-04-17 10:24:00,
2011-04-17 04:34:00,46.8,24.2,29.83,SSE,157,0.9,0.9,41,0.00,,,0.00,open2300-1.11,2011-04-17 10:34:00,
2011-04-17 04:45:00,46.2,23.7,29.82,East,90,2.5,4.7,41,0.00,,,0.00,open2300-1.11,2011-04-17 10:45:00,
2011-04-17 04:54:00,46.2,24.3,29.82,East,90,0.0,3.1,42,0.00,,,0.00,open2300-1.11,2011-04-17 10:54:00,
2011-04-17 05:05:00,46.0,24.1,29.82,ESE,112,4.7,4.7,42,0.00,,,0.00,open2300-1.11,2011-04-17 11:05:00,
2011-04-17 05:14:00,45.7,24.3,29.81,East,90,0.0,7.6,43,0.00,,,0.00,open2300-1.11,2011-04-17 11:14:00,
2011-04-17 05:24:00,45.3,24.0,29.81,SE,135,0.0,2.7,43,0.00,,,0.00,open2300-1.11,2011-04-17 11:24:00,
2011-04-17 05:34:00,45.0,23.7,29.81,SE,135,0.0,3.1,43,0.00,,,0.00,open2300-1.11,2011-04-17 11:34:00,
2011-04-17 05:44:00,44.4,23.2,29.81,SE,135,0.0,0.0,43,0.00,,,0.00,open2300-1.11,2011-04-17 11:44:00,
2011-04-17 05:54:00,43.9,23.8,29.82,ESE,112,1.1,1.1,45,0.00,,,0.00,open2300-1.11,2011-04-17 11:54:00,
2011-04-17 06:04:00,43.9,23.8,29.82,ENE,67,0.0,2.5,45,0.00,,,0.00,open2300-1.11,2011-04-17 12:04:00,
2011-04-17 06:14:00,43.9,24.3,29.82,SE,135,0.0,0.0,46,0.00,,,0.00,open2300-1.11,2011-04-17 12:14:00,
2011-04-17 06:24:00,43.7,24.2,29.82,ESE,112,0.0,0.7,46,0.00,,,0.00,open2300-1.11,2011-04-17 12:24:00,
2011-04-17 06:34:00,43.7,24.2,29.82,SE,135,3.4,3.4,46,0.00,,,0.00,open2300-1.11,2011-04-17 12:34:00,
2011-04-17 06:44:00,43.7,24.2,29.82,ESE,112,0.0,3.4,46,0.00,,,0.00,open2300-1.11,2011-04-17 12:44:00,
2011-04-17 06:54:00,43.5,24.5,29.82,ESE,112,2.0,8.1,47,0.00,,,0.00,open2300-1.11,2011-04-17 12:54:00,
2011-04-17 07:04:00,43.7,24.7,29.82,ENE,67,0.0,6.0,47,0.00,,,0.00,open2300-1.11,2011-04-17 13:04:00,
2011-04-17 07:14:00,43.5,24.5,29.82,SE,135,0.0,3.1,47,0.00,,,0.00,open2300-1.11,2011-04-17 13:14:00,
2011-04-17 07:24:00,43.5,24.5,29.82,East,90,0.0,0.0,47,0.00,,,0.00,open2300-1.11,2011-04-17 13:24:00,
2011-04-17 07:34:00,43.5,25.1,29.82,NE,45,1.6,2.9,48,0.00,,,0.00,open2300-1.11,2011-04-17 13:34:00,
2011-04-17 07:44:00,43.9,25.4,29.83,East,90,0.0,3.1,48,0.00,,,0.00,open2300-1.11,2011-04-17 13:44:00,
2011-04-17 07:54:00,44.4,25.9,29.83,ENE,67,2.5,2.5,48,0.00,,,0.00,open2300-1.11,2011-04-17 13:54:00,
2011-04-17 08:05:00,45.1,26.0,29.83,SSE,157,0.0,2.7,47,0.00,,,0.00,open2300-1.11,2011-04-17 14:05:00,
2011-04-17 08:14:00,45.7,27.0,29.83,SSE,157,0.0,1.8,48,0.00,,,0.00,open2300-1.11,2011-04-17 14:14:00,
2011-04-17 08:24:00,46.6,27.3,29.84,SSE,157,0.0,0.0,47,0.00,,,0.00,open2300-1.11,2011-04-17 14:24:00,
2011-04-17 08:34:00,47.5,28.1,29.84,SSE,157,0.0,0.0,47,0.00,,,0.00,open2300-1.11,2011-04-17 14:34:00,
2011-04-17 08:44:00,48.6,29.1,29.84,ENE,67,0.0,0.0,47,0.00,,,0.00,open2300-1.11,2011-04-17 14:44:00,
2011-04-17 08:55:00,49.8,29.8,29.83,East,90,2.5,2.7,46,0.00,,,0.00,open2300-1.11,2011-04-17 14:55:00,
2011-04-17 09:04:00,51.3,30.0,29.83,East,90,0.0,2.5,44,0.00,,,0.00,open2300-1.11,2011-04-17 15:04:00,
2011-04-17 09:14:00,52.0,30.6,29.83,East,90,0.0,1.6,44,0.00,,,0.00,open2300-1.11,2011-04-17 15:14:00,
2011-04-17 09:24:00,53.2,30.6,29.83,SSE,157,0.0,0.7,42,0.00,,,0.00,open2300-1.11,2011-04-17 15:24:00,
2011-04-17 09:34:00,54.1,31.4,29.82,SE,135,0.0,0.0,42,0.00,,,0.00,open2300-1.11,2011-04-17 15:34:00,
2011-04-17 09:44:00,55.0,31.7,29.83,SSW,202,0.0,0.0,41,0.00,,,0.00,open2300-1.11,2011-04-17 15:44:00,
2011-04-17 09:54:00,56.1,32.1,29.82,West,270,0.0,0.0,40,0.00,,,0.00,open2300-1.11,2011-04-17 15:54:00,
2011-04-17 10:04:00,57.0,32.9,29.82,WNW,292,0.9,0.9,40,0.00,,,0.00,open2300-1.11,2011-04-17 16:04:00,
2011-04-17 10:14:00,57.7,32.9,29.82,West,270,0.0,1.8,39,0.00,,,0.00,open2300-1.11,2011-04-17 16:14:00,
2011-04-17 10:25:00,58.3,33.3,29.81,WSW,247,0.0,1.1,39,0.00,,,0.00,open2300-1.11,2011-04-17 16:25:00,
2011-04-17 10:34:00,59.2,33.4,29.81,NW,315,3.6,3.6,38,0.00,,,0.00,open2300-1.11,2011-04-17 16:34:00,
2011-04-17 10:44:00,60.4,33.1,29.81,NW,315,3.4,5.4,36,0.00,,,0.00,open2300-1.11,2011-04-17 16:44:00,
2011-04-17 10:54:00,61.3,33.2,29.81,NW,315,3.6,3.6,35,0.00,,,0.00,open2300-1.11,2011-04-17 16:54:00,
2011-04-17 11:05:00,62.4,34.2,29.81,West,270,4.7,4.7,35,0.00,,,0.00,open2300-1.11,2011-04-17 17:05:00,
2011-04-17 11:14:00,62.8,34.5,29.82,NNW,337,0.0,7.2,35,0.00,,,0.00,open2300-1.11,2011-04-17 17:14:00,
2011-04-17 11:24:00,63.5,34.4,29.82,WNW,292,0.0,0.7,34,0.00,,,0.00,open2300-1.11,2011-04-17 17:24:00,
2011-04-17 11:34:00,64.4,35.2,29.82,SW,225,0.0,7.2,34,0.00,,,0.00,open2300-1.11,2011-04-17 17:34:00,
2011-04-17 11:44:00,65.1,35.9,29.83,WNW,292,0.0,3.1,34,0.00,,,0.00,open2300-1.11,2011-04-17 17:44:00,
2011-04-17 11:54:00,65.8,36.5,29.82,NW,315,0.0,6.0,34,0.00,,,0.00,open2300-1.11,2011-04-17 17:54:00,
2011-04-17 12:04:00,66.4,36.3,29.81,West,270,3.6,3.6,33,0.00,,,0.00,open2300-1.11,2011-04-17 18:04:00,
2011-04-17 12:14:00,66.7,35.8,29.81,WSW,247,1.8,6.0,32,0.00,,,0.00,open2300-1.11,2011-04-17 18:14:00,
2011-04-17 12:24:00,67.3,36.3,29.81,West,270,8.1,8.1,32,0.00,,,0.00,open2300-1.11,2011-04-17 18:24:00,
2011-04-17 12:34:00,68.2,36.3,29.81,NW,315,2.5,8.1,31,0.00,,,0.00,open2300-1.11,2011-04-17 18:34:00,
2011-04-17 12:44:00,68.7,37.5,29.80,WNW,292,6.3,6.3,32,0.00,,,0.00,open2300-1.11,2011-04-17 18:44:00,
2011-04-17 12:54:00,69.3,36.5,29.80,NW,315,4.2,8.3,30,0.00,,,0.00,open2300-1.11,2011-04-17 18:54:00,
2011-04-17 13:04:00,69.6,37.6,29.79,West,270,4.0,4.7,31,0.00,,,0.00,open2300-1.11,2011-04-17 19:04:00,
2011-04-17 13:14:00,70.2,37.4,29.79,SW,225,0.0,6.7,30,0.00,,,0.00,open2300-1.11,2011-04-17 19:14:00,
2011-04-17 13:24:00,70.7,38.6,29.78,WSW,247,5.6,5.6,31,0.00,,,0.00,open2300-1.11,2011-04-17 19:24:00,
2011-04-17 13:34:00,71.4,38.5,29.78,WNW,292,6.7,6.7,30,0.00,,,0.00,open2300-1.11,2011-04-17 19:34:00,
2011-04-17 13:44:00,71.8,38.8,29.78,West,270,0.0,6.7,30,0.00,,,0.00,open2300-1.11,2011-04-17 19:44:00,
2011-04-17 13:54:00,72.1,38.1,29.78,West,270,7.2,8.9,29,0.00,,,0.00,open2300-1.11,2011-04-17 19:54:00,
2011-04-17 14:04:00,72.3,38.2,29.78,WSW,247,4.0,7.2,29,0.00,,,0.00,open2300-1.11,2011-04-17 20:04:00,
2011-04-17 14:14:00,72.9,38.6,29.77,West,270,3.8,11.4,29,0.00,,,0.00,open2300-1.11,2011-04-17 20:14:00,
2011-04-17 14:24:00,73.6,38.2,29.76,West,270,5.4,13.9,28,0.00,,,0.00,open2300-1.11,2011-04-17 20:24:00,
2011-04-17 14:35:00,73.9,37.5,29.76,SW,225,11.2,11.2,27,0.00,,,0.00,open2300-1.11,2011-04-17 20:35:00,
2011-04-17 14:44:00,74.3,38.9,29.76,West,270,4.7,11.2,28,0.00,,,0.00,open2300-1.11,2011-04-17 20:44:00,
2011-04-17 14:54:00,74.8,38.3,29.75,WSW,247,6.5,6.5,27,0.00,,,0.00,open2300-1.11,2011-04-17 20:54:00,
2011-04-17 15:04:00,74.5,38.0,29.75,West,270,6.3,6.5,27,0.00,,,0.00,open2300-1.11,2011-04-17 21:04:00,
2011-04-17 15:14:00,75.4,38.8,29.74,NNW,337,0.0,6.3,27,0.00,,,0.00,open2300-1.11,2011-04-17 21:14:00,
2011-04-17 15:24:00,75.9,37.2,29.74,WNW,292,6.9,8.1,25,0.00,,,0.00,open2300-1.11,2011-04-17 21:24:00,
2011-04-17 15:34:00,75.9,39.2,29.73,NW,315,3.4,7.2,27,0.00,,,0.00,open2300-1.11,2011-04-17 21:34:00,
2011-04-17 15:44:00,75.9,35.1,29.73,WNW,292,6.9,8.7,23,0.00,,,0.00,open2300-1.11,2011-04-17 21:44:00,
2011-04-17 15:54:00,75.7,36.0,29.72,NW,315,3.4,6.9,24,0.00,,,0.00,open2300-1.11,2011-04-17 21:54:00,
2011-04-17 16:04:00,75.7,36.0,29.72,WNW,292,10.7,10.7,24,0.00,,,0.00,open2300-1.11,2011-04-17 22:04:00,
2011-04-17 16:44:00,75.4,35.7,29.72,NW,315,5.8,12.1,24,0.00,,,0.00,open2300-1.11,2011-04-17 22:44:00,
2011-04-17 16:54:00,75.4,33.7,29.72,West,270,0.0,8.3,22,0.00,,,0.00,open2300-1.11,2011-04-17 22:54:00,
2011-04-17 17:05:00,75.4,35.7,29.72,WSW,247,4.7,6.0,24,0.00,,,0.00,open2300-1.11,2011-04-17 23:05:00,
2011-04-17 17:14:00,76.3,34.4,29.72,SW,225,3.4,4.7,22,0.00,,,0.00,open2300-1.11,2011-04-17 23:14:00,
2011-04-17 17:24:00,76.6,33.6,29.72,WNW,292,10.3,10.3,21,0.00,,,0.00,open2300-1.11,2011-04-17 23:24:00,
2011-04-17 17:34:00,75.0,33.3,29.72,West,270,2.5,10.3,22,0.00,,,0.00,open2300-1.11,2011-04-17 23:34:00,
2011-04-17 17:44:00,73.4,32.0,29.72,WNW,292,0.0,5.6,22,0.00,,,0.00,open2300-1.11,2011-04-17 23:44:00,
2011-04-17 17:54:00,72.5,31.2,29.72,SW,225,5.4,7.2,22,0.00,,,0.00,open2300-1.11,2011-04-17 23:54:00,
2011-04-17 18:04:00,71.6,31.5,29.72,West,270,0.0,5.8,23,0.00,,,0.00,open2300-1.11,2011-04-18 00:04:00,
2011-04-17 18:14:00,70.9,30.9,29.72,West,270,4.5,5.8,23,0.00,,,0.00,open2300-1.11,2011-04-18 00:14:00,
2011-04-17 18:24:00,70.5,31.6,29.71,WNW,292,5.4,5.4,24,0.00,,,0.00,open2300-1.11,2011-04-18 00:24:00,
2011-04-17 18:34:00,70.3,30.4,29.71,WSW,247,1.6,5.4,23,0.00,,,0.00,open2300-1.11,2011-04-18 00:34:00,
2011-04-17 18:44:00,69.6,30.8,29.71,North,0,2.9,2.9,24,0.00,,,0.00,open2300-1.11,2011-04-18 00:44:00,
2011-04-17 18:54:00,69.4,31.7,29.71,NW,315,0.0,4.5,25,0.00,,,0.00,open2300-1.11,2011-04-18 00:54:00,
2011-04-17 19:04:00,68.7,31.1,29.71,WNW,292,0.0,1.8,25,0.00,,,0.00,open2300-1.11,2011-04-18 01:04:00,
2011-04-17 19:14:00,68.2,30.6,29.71,WNW,292,0.0,2.0,25,0.00,,,0.00,open2300-1.11,2011-04-18 01:14:00,
2011-04-17 19:24:00,67.8,31.3,29.71,WNW,292,0.0,0.0,26,0.00,,,0.00,open2300-1.11,2011-04-18 01:24:00,
2011-04-17 19:34:00,67.6,31.1,29.71,WNW,292,0.0,0.0,26,0.00,,,0.00,open2300-1.11,2011-04-18 01:34:00,
2011-04-17 19:44:00,66.9,30.5,29.71,WNW,292,0.0,0.0,26,0.00,,,0.00,open2300-1.11,2011-04-18 01:44:00,
2011-04-17 19:54:00,66.4,30.1,29.72,WNW,292,0.0,0.0,26,0.00,,,0.00,open2300-1.11,2011-04-18 01:54:00,
2011-04-17 20:04:00,65.8,30.6,29.72,NW,315,0.0,0.0,27,0.00,,,0.00,open2300-1.11,2011-04-18 02:04:00,
2011-04-17 20:14:00,65.3,30.2,29.72,NW,315,0.0,0.0,27,0.00,,,0.00,open2300-1.11,2011-04-18 02:14:00,
2011-04-17 20:24:00,64.9,30.9,29.72,NW,315,0.0,0.0,28,0.00,,,0.00,open2300-1.11,2011-04-18 02:24:00,
2011-04-17 20:34:00,64.0,31.0,29.72,NW,315,0.0,0.0,29,0.00,,,0.00,open2300-1.11,2011-04-18 02:34:00,
2011-04-17 20:44:00,63.1,30.2,29.73,NW,315,0.0,0.0,29,0.00,,,0.00,open2300-1.11,2011-04-18 02:44:00,
2011-04-17 20:55:00,62.4,29.6,29.72,NW,315,0.0,0.0,29,0.00,,,0.00,open2300-1.11,2011-04-18 02:55:00,
2011-04-17 21:04:00,61.3,29.6,29.73,NW,315,0.0,0.0,30,0.00,,,0.00,open2300-1.11,2011-04-18 03:04:00,
2011-04-17 21:14:00,60.4,29.5,29.73,NW,315,0.0,0.0,31,0.00,,,0.00,open2300-1.11,2011-04-18 03:14:00,
2011-04-17 21:24:00,59.4,28.7,29.73,NW,315,0.0,0.0,31,0.00,,,0.00,open2300-1.11,2011-04-18 03:24:00,
2011-04-17 21:34:00,58.3,28.4,29.74,NW,315,0.0,0.0,32,0.00,,,0.00,open2300-1.11,2011-04-18 03:34:00,
2011-04-17 21:44:00,57.6,29.2,29.74,NW,315,0.0,0.0,34,0.00,,,0.00,open2300-1.11,2011-04-18 03:44:00,
2011-04-17 21:55:00,56.8,27.8,29.74,SW,225,0.0,0.0,33,0.00,,,0.00,open2300-1.11,2011-04-18 03:55:00,
2011-04-17 22:04:00,56.5,28.9,29.74,SW,225,0.0,0.0,35,0.00,,,0.00,open2300-1.11,2011-04-18 04:04:00,
2011-04-17 22:14:00,56.1,28.6,29.74,SW,225,0.0,0.0,35,0.00,,,0.00,open2300-1.11,2011-04-18 04:14:00,
2011-04-17 22:24:00,55.8,28.3,29.74,SW,225,0.0,0.0,35,0.00,,,0.00,open2300-1.11,2011-04-18 04:24:00,
2011-04-17 22:34:00,55.6,28.1,29.74,SW,225,0.0,0.0,35,0.00,,,0.00,open2300-1.11,2011-04-18 04:34:00,
2011-04-17 22:44:00,55.2,28.5,29.74,SW,225,0.0,0.0,36,0.00,,,0.00,open2300-1.11,2011-04-18 04:44:00,
2011-04-17 22:54:00,54.9,28.2,29.75,SW,225,0.0,0.0,36,0.00,,,0.00,open2300-1.11,2011-04-18 04:54:00,
2011-04-17 23:04:00,54.5,27.9,29.75,SW,225,0.0,0.0,36,0.00,,,0.00,open2300-1.11,2011-04-18 05:04:00,
2011-04-17 23:14:00,54.1,28.3,29.75,SSW,202,0.0,0.0,37,0.00,,,0.00,open2300-1.11,2011-04-18 05:14:00,
2011-04-17 23:25:00,54.0,28.1,29.75,SSW,202,0.0,0.0,37,0.00,,,0.00,open2300-1.11,2011-04-18 05:25:00,
2011-04-17 23:34:00,53.8,28.6,29.75,SSW,202,0.0,0.0,38,0.00,,,0.00,open2300-1.11,2011-04-18 05:34:00,
2011-04-17 23:44:00,53.4,28.3,29.75,SSW,202,0.0,0.0,38,0.00,,,0.00,open2300-1.11,2011-04-18 05:44:00,
2011-04-17 23:54:00,52.9,28.5,29.75,SSW,202,0.0,0.0,39,0.00,,,0.00,open2300-1.11,2011-04-18 05:54:00,